Theta_e
332 333 334 333 332 331 332 332 333 333 332 332 331 331 330 329 329 330 330 330 330 331 332 331 326 329 330 329 329 328 327 328 331 328 326 326 325 325 325 324 323 322 324
331 333 334 332 332 332 332 332 332 332 332 331 331 330 331 331 331 330 330 330 331 331 330 330 330 331 327 327 329 329 328 329 330 328 327 326 325 325 324 324 323 322 319
330 332 333 333 332 332 332 332 332 332 332 332 331 330 330 331 330 330 330 330 330 330 330 329 331 331 329 328 330 331 330 330 327 326 326 325 325 324 324 323 322 320 317
330 331 333 333 333 332 332 332 332 331 331 332 331 331 330 330 330 330 330 330 329 330 330 331 331 331 332 332 332 332 331 328 327 326 325 325 325 324 324 323 323 323 322
329 330 333 332 332 332 332 332 332 331 330 331 331 331 330 330 330 329 328 329 328 329 329 330 330 331 332 332 332 330 330 328 328 326 325 325 325 325 325 322 322 321 320
329 329 332 332 332 332 332 332 332 331 331 331 331 331 330 328 326 327 328 328 328 329 328 328 328 327 328 329 330 330 329 327 327 326 325 325 325 325 324 319 319 319 323
328 329 330 331 331 332 331 331 332 332 331 329 330 330 330 328 325 325 327 328 327 328 329 329 328 327 329 327 328 328 327 327 327 326 325 326 326 326 324 319 321 322 322
327 328 329 331 331 332 329 330 332 332 331 327 327 330 329 324 323 325 327 327 327 326 326 326 326 328 326 326 325 325 325 326 326 326 326 326 326 326 326 324 322 324 322
326 327 327 330 332 331 329 329 331 332 331 330 328 326 327 323 323 326 328 327 326 325 325 326 326 326 327 326 326 324 325 325 325 326 327 326 326 326 326 325 324 322 322
325 326 326 329 332 331 329 328 330 331 332 331 326 326 325 325 325 326 329 328 325 325 324 324 326 326 325 325 326 325 323 323 324 326 326 326 326 326 326 326 322 323 324
323 325 326 328 331 333 331 329 329 328 331 330 327 326 327 324 326 326 328 326 325 324 325 325 323 322 322 322 326 325 323 324 324 326 327 327 324 324 325 327 323 327 325
324 324 325 326 330 332 331 329 327 328 329 331 330 328 329 324 325 326 327 327 326 326 327 327 325 322 321 323 324 323 321 324 324 324 324 324 324 324 324 324 323 321 320
325 324 325 326 327 331 332 329 328 327 325 327 331 330 328 325 325 326 327 327 327 326 328 328 325 324 321 322 323 321 321 324 325 325 325 325 324 321 318 317 315 313 313
326 326 326 326 326 329 331 329 327 325 322 323 326 330 331 329 326 326 326 326 327 328 327 326 325 324 325 321 320 321 324 324 325 323 319 316 315 314 314 314 313 313 310
326 327 327 326 326 327 329 330 328 327 324 320 322 325 330 331 330 327 328 328 328 329 329 325 326 326 323 323 322 321 322 321 320 319 317 316 316 316 316 315 315 313 311
327 327 328 326 326 325 326 328 328 328 326 323 320 321 323 327 329 328 328 328 328 327 327 328 328 326 323 323 323 322 322 320 320 320 318 317 316 316 316 316 315 316 315
328 327 326 326 325 324 324 326 327 327 326 324 323 319 320 322 322 326 327 327 327 326 329 329 328 325 322 320 321 321 321 320 319 319 319 318 317 316 315 316 316 316 313
329 327 326 325 325 324 324 324 323 323 326 326 323 322 320 320 320 322 323 323 323 324 326 326 327 325 322 320 320 320 320 321 320 320 320 319 318 316 315 316 316 315 312
330 327 326 325 325 323 324 324 322 322 322 323 324 324 323 322 321 319 321 321 321 321 321 322 322 321 322 321 321 320 319 320 320 320 320 319 318 316 316 315 316 313 309
331 328 327 326 325 324 323 324 323 323 323 322 323 324 323 322 322 320 317 319 319 318 319 319 320 321 321 321 321 320 320 319 319 319 319 319 318 317 316 316 315 311 305
330 328 326 327 326 325 323 323 323 323 324 324 323 323 322 322 322 322 324 324 323 321 321 318 317 317 318 319 320 319 318 318 318 318 318 317 317 316 316 316 315 309 303
330 329 326 327 327 326 325 323 323 323 323 324 324 324 322 322 320 320 321 322 322 322 321 321 320 318 316 316 317 318 317 317 317 317 317 316 316 315 315 315 313 305 301
329 329 327 327 327 327 326 325 323 323 323 323 323 324 322 324 323 322 321 321 322 322 321 321 321 320 318 317 316 315 316 316 316 316 316 316 315 314 314 313 309 304 302
329 329 328 327 327 327 327 326 326 324 324 323 323 323 324 324 324 323 323 323 324 324 323 322 321 320 320 319 318 318 317 316 315 315 316 315 315 314 314 311 307 306 302
329 329 329 328 328 327 327 327 327 327 325 324 324 324 324 324 325 324 324 324 325 325 325 324 323 322 320 319 319 319 319 319 319 319 317 316 316 315 312 309 308 303 299
328 329 329 329 328 328 328 328 328 328 327 327 326 326 326 326 326 326 325 325 325 326 326 325 324 323 322 321 320 319 319 319 319 318 317 317 316 314 311 309 305 298 296
Wind_Speed
9 7 5 2 2 3 3 3 3 4 6 9 9 9 10 11 10 8 7 8 8 7 8 12 12 12 9 8 11 10 11 12 9 6 26 29 37 40 36 40 34 31 26
10 7 5 3 1 5 4 3 3 4 5 9 8 8 9 10 10 10 9 7 6 7 8 9 11 11 12 9 12 12 10 11 15 14 29 29 33 37 38 35 31 28 25
11 9 6 4 2 4 4 4 3 5 7 9 9 9 9 9 9 8 7 7 6 6 9 9 8 15 13 9 9 11 12 15 21 22 27 31 31 37 34 30 27 27 25
11 9 8 5 5 5 5 5 6 6 6 7 9 9 9 9 8 8 7 7 6 6 7 9 10 9 11 12 11 12 15 21 24 26 26 26 27 29 29 26 22 23 23
12 11 9 8 6 7 6 6 7 8 8 7 9 10 9 8 8 9 9 9 6 6 7 8 8 6 9 8 9 14 18 23 22 25 23 23 24 23 21 22 27 26 19
12 12 11 9 7 7 6 6 8 9 9 8 9 10 9 7 11 12 11 9 9 7 8 8 9 9 9 10 9 13 17 26 22 23 23 23 23 22 29 31 28 22 13
14 13 12 11 9 7 6 5 8 10 11 10 9 10 8 9 12 14 12 10 9 9 9 11 11 11 9 10 10 12 18 23 24 28 28 23 26 28 31 29 23 17 15
15 14 13 13 11 8 7 6 6 10 10 11 11 11 10 11 13 14 11 12 13 12 11 11 15 12 15 17 19 21 24 22 23 28 29 31 33 29 26 27 22 18 18
17 15 14 14 12 11 9 7 6 9 9 10 11 12 12 13 14 14 12 14 16 17 15 15 16 20 20 22 24 22 22 22 20 25 24 32 29 24 20 22 17 18 17
20 17 15 15 14 12 10 8 7 6 9 11 11 16 15 16 16 14 12 13 19 22 21 17 21 22 18 13 20 21 21 19 18 22 22 24 22 18 17 15 18 14 13
20 19 16 15 14 12 11 9 9 7 8 15 17 15 14 16 16 17 15 19 23 21 16 17 19 16 13 15 13 15 18 19 21 20 22 19 17 16 13 8 13 6 11
21 21 18 17 16 14 13 11 10 10 10 12 16 13 13 12 14 15 17 17 20 17 15 14 15 14 15 15 13 17 21 20 18 18 18 18 18 15 11 8 8 6 5
22 21 20 18 17 16 16 14 12 12 11 11 13 15 13 11 15 17 14 17 14 14 13 14 14 13 14 15 16 20 17 12 14 16 15 14 13 12 13 12 11 10 10
24 23 22 21 19 18 18 16 14 13 12 12 12 13 16 15 13 18 17 16 16 11 15 15 12 12 11 14 17 15 11 11 12 13 14 14 13 13 12 12 12 10 9
26 24 23 22 22 20 19 18 17 14 12 12 12 13 14 15 17 20 20 21 20 16 18 15 12 12 13 12 11 11 10 10 11 11 13 13 13 14 13 14 14 14 11
28 26 25 23 24 21 21 16 15 11 17 10 10 11 12 9 17 21 21 21 22 21 17 16 15 15 15 16 15 15 14 15 15 15 15 16 17 17 16 16 15 14 12
29 28 26 24 23 23 22 21 19 14 15 18 14 15 9 14 16 20 22 22 22 21 17 17 17 17 17 17 17 17 17 17 16 17 17 16 15 16 17 16 15 13 12
32 32 27 28 25 24 23 21 21 20 20 18 21 16 15 12 18 21 21 20 18 20 18 17 18 19 19 19 18 18 17 18 19 18 17 17 17 17 17 16 15 14 14
34 32 30 27 25 25 24 22 21 20 21 21 21 21 21 20 17 20 22 21 20 21 21 19 18 19 20 20 19 19 19 19 20 20 20 20 20 20 19 19 18 19 19
33 33 34 27 26 26 25 24 23 21 21 21 23 23 23 23 20 20 23 23 23 23 23 23 22 21 21 21 21 21 21 21 22 23 23 22 22 22 21 22 21 20 21
33 31 35 28 27 27 26 26 25 24 23 23 22 23 28 28 28 28 27 28 29 25 24 24 25 24 24 23 23 23 24 24 25 25 24 24 24 24 24 22 22 22 24
32 31 34 32 28 27 27 27 27 26 26 25 24 23 29 28 28 28 29 29 30 30 28 25 25 25 26 26 27 26 26 27 26 26 27 26 25 25 24 24 23 24 25
30 31 31 32 31 28 27 27 27 28 27 27 26 25 29 30 28 27 27 27 27 28 29 29 28 27 27 27 27 28 29 29 28 27 26 26 27 26 25 25 26 26 28
27 29 29 32 32 30 29 30 28 27 27 27 27 28 27 28 29 30 28 27 26 27 27 28 30 30 29 29 29 29 29 27 26 26 27 26 25 23 24 24 25 27 29
25 26 27 28 30 31 30 30 30 29 29 28 28 28 28 27 26 28 29 29 28 27 27 27 27 28 31 32 31 30 29 29 28 24 23 25 23 24 25 24 25 27 31
26 24 24 24 26 28 29 29 30 30 30 30 30 29 29 29 29 26 26 27 29 29 27 27 29 29 27 29 32 33 31 31 31 31 23 21 23 24 25 25 26 30 32
Wind_Direction
167 167 161 142 171 168 155 159 142 153 152 160 157 156 154 155 162 170 176 171 178 169 137 148 161 153 149 131 154 157 145 164 157 133 131 126 126 130 132 138 143 144 147
169 161 143 129 156 170 146 120 127 138 135 155 155 150 150 152 155 160 164 167 162 148 127 137 160 158 153 151 157 158 174 185 151 145 147 135 131 134 135 138 144 146 146
169 159 142 128 140 149 140 114 114 125 135 146 159 160 150 142 147 156 161 162 170 157 150 158 166 157 166 169 149 143 132 127 115 117 130 127 125 135 137 142 146 143 143
170 165 149 137 140 141 137 119 124 118 123 137 147 154 146 150 149 154 161 158 159 146 136 150 146 155 171 165 153 141 136 135 119 122 120 128 133 138 139 136 133 138 139
172 168 158 149 143 131 113 109 116 119 118 119 127 135 139 147 152 154 150 138 144 138 131 128 128 149 153 156 144 143 141 138 138 138 141 138 138 143 137 128 122 117 116
174 171 166 169 166 149 135 115 127 130 121 125 135 137 143 146 159 154 148 142 139 140 132 118 122 133 142 138 136 138 146 145 142 141 146 150 144 135 130 132 132 140 135
176 171 171 174 176 161 153 153 129 128 124 120 125 139 136 141 147 145 138 139 144 145 136 124 122 124 123 129 135 144 152 155 143 147 145 143 135 140 139 139 149 152 151
179 174 175 178 172 162 158 142 132 141 134 136 137 134 130 140 142 133 124 126 124 130 129 132 123 110 125 130 131 123 126 145 148 153 149 151 149 151 149 155 156 139 144
180 179 180 179 171 162 159 148 148 145 129 142 148 150 139 138 141 132 123 121 120 124 137 143 130 124 119 118 123 116 123 125 149 153 149 159 161 156 157 150 155 153 156
182 181 179 179 174 167 161 151 148 145 127 122 148 159 149 145 144 136 130 128 125 118 112 113 140 125 124 116 120 122 118 124 133 144 157 155 176 170 173 172 170 172 167
181 179 177 179 176 173 164 157 152 142 118 114 126 144 148 154 156 153 134 135 136 126 122 112 117 129 128 135 126 144 133 131 127 130 142 148 151 155 164 175 188 225 178
180 179 177 177 182 174 169 165 159 146 135 131 138 143 147 157 163 158 150 149 144 148 139 124 121 125 136 145 148 154 141 130 134 134 143 149 157 161 160 151 148 132 103
181 180 178 178 184 177 176 173 168 168 157 153 152 144 154 159 172 166 156 160 152 151 144 135 129 120 122 115 127 146 137 144 148 148 150 152 156 158 149 138 140 139 128
180 180 181 182 183 183 184 182 186 182 180 177 163 158 160 167 170 177 182 169 173 159 147 146 142 136 143 142 135 138 149 152 157 156 156 155 153 152 153 155 146 141 137
182 182 182 186 186 185 194 190 196 193 191 185 178 167 166 171 180 180 178 182 181 174 162 162 162 166 161 163 167 175 174 171 168 165 163 163 164 170 173 173 176 173 173
181 184 186 187 186 190 192 192 204 197 197 198 183 184 172 177 172 175 175 178 181 179 176 183 185 185 186 186 187 187 190 189 188 184 182 181 183 186 185 190 192 197 192
182 182 185 192 186 193 194 195 191 201 196 203 196 196 178 182 178 175 179 181 184 179 196 191 193 195 197 197 198 198 198 197 194 194 193 193 193 196 189 195 198 201 196
186 182 184 191 190 194 195 197 199 191 197 201 211 201 198 191 189 186 183 179 182 197 211 205 204 201 204 204 205 205 203 197 200 201 201 201 201 201 199 203 204 203 194
189 187 190 191 193 195 192 196 198 197 197 198 193 203 208 204 198 201 202 201 204 207 214 219 212 211 211 212 211 212 210 207 204 205 206 206 205 205 206 209 207 203 194
193 192 191 190 193 196 198 197 197 197 196 199 199 198 193 200 199 201 205 213 221 221 219 220 221 221 218 217 216 216 213 212 210 212 213 212 212 212 213 211 208 198 192
190 189 192 191 195 197 201 201 202 200 200 203 205 201 196 198 205 208 209 213 218 223 223 224 224 224 223 223 221 219 219 217 217 217 218 218 218 217 217 215 207 195 191
190 187 191 197 196 198 203 203 206 206 207 207 208 203 199 203 212 214 215 217 221 223 226 227 228 227 226 224 224 224 224 223 223 222 222 221 218 218 217 212 201 191 189
192 189 191 198 200 200 200 205 208 211 210 210 209 206 191 208 218 219 219 221 220 223 224 225 227 229 230 229 228 227 227 227 227 225 224 222 219 216 211 206 195 191 188
198 197 194 197 199 200 202 206 208 211 213 214 213 214 205 209 216 221 223 224 224 224 224 225 226 227 226 226 226 229 231 232 232 231 227 226 223 215 211 201 201 197 185
206 201 202 204 203 201 202 206 210 210 212 218 218 218 219 213 215 219 222 224 226 227 226 226 227 228 229 229 228 229 231 231 227 227 226 226 223 214 207 204 201 185 175
221 203 207 208 210 207 208 205 209 212 214 215 221 221 220 220 218 218 219 220 223 224 226 227 229 227 226 229 230 230 230 232 233 223 217 217 214 209 205 202 187 174 168